Pluckemin, NJ

10:19 PM EDT on July 27, 2016 (GMT -0400)
Somerset

Weather History for KSMQ - August, 2012

Change the Weather History Date:

Thursday, August 2, 2012

  Actual Average Record
Temperature  
Mean Temperature 78 °F -  
Max Temperature 91 °F 84 °F 105 °F (1955)
Min Temperature 66 °F 62 °F 50 °F (1947)
Cooling Degree Days 14    
Growing Degree Days 28 (Base 50)    
Moisture  
Dew Point 68 °F    
Average Humidity 83    
Maximum Humidity 100    
Minimum Humidity 39    
Precipitation  
Precipitation 0.01 in - - ()
Sea Level Pressure  
Sea Level Pressure 29.87 in    
Wind  
Wind Speed 0 mph (NW)    
Max Wind Speed 6 mph    
Max Gust Speed -    
Visibility 5 miles    
Events Fog    
Averages and records for this station are not official NWS values.
T = Trace of Precipitation, MM = Missing Value Source: NWS Daily Summary

Daily Weather History Graph

Daily Weather History Graph

Search for Another Location

Airport or City:

Trip Planner

Search our weather history database for the weather conditions in past years. The results will help you decide how hot, cold, wet, or windy it might be!

Date:

Astronomy

Aug. 02, 2012 Rise Set
Actual Time 5:56 AM EDT 8:12 PM EDT
Civil Twilight 5:26 AM EDT 8:42 PM EDT
Nautical Twilight 4:48 AM EDT 9:20 PM EDT
Astronomical Twilight 4:07 AM EDT 10:01 PM EDT
Moon 8:16 PM EDT (8/2) 6:31 AM EDT (8/2)
Length of Visible Light 15h 16m
Length of Day
14h 15m
Full, 100% of the Moon is Illuminated
Aug 2
Full
Aug 9
Last Quarter
Aug 17
New
Aug 24
First Quarter
Aug 31
Full

Hourly Weather History & Observations

Time (EDT) Temp. Heat Index Dew Point Humidity Pressure Visibility Wind Dir Wind Speed Gust Speed Precip Events Conditions
12:53 AM 68.0 °F - 68.0 °F 100% 29.86 in 0.2 mi Calm Calm - N/A Fog Fog
1:53 AM 66.9 °F - 66.9 °F 100% 29.85 in 0.2 mi Calm Calm - N/A Fog Fog
2:53 AM 66.9 °F - 66.9 °F 100% 29.86 in 0.2 mi Calm Calm - N/A Fog Fog
3:53 AM 66.9 °F - 66.9 °F 100% 29.85 in 0.2 mi Calm Calm - N/A Fog Fog
4:53 AM 66.9 °F - 66.0 °F 97% 29.85 in 0.2 mi Calm Calm - 0.01 in Fog Fog
5:08 AM 66.2 °F - 66.2 °F 100% 29.86 in 0.5 mi Calm Calm - N/A Fog Fog
5:43 AM 66.2 °F - 66.2 °F 100% 29.86 in 0.2 mi Calm Calm - N/A Fog Fog
5:53 AM 66.9 °F - 66.9 °F 100% 29.86 in 0.2 mi Calm Calm - N/A Fog Fog
6:53 AM 68.0 °F - 68.0 °F 100% 29.87 in 0.2 mi Calm Calm - N/A Fog Fog
7:37 AM 68.0 °F - 68.0 °F 100% 29.87 in 0.5 mi Calm Calm - N/A Fog Fog
7:53 AM 69.1 °F - 68.0 °F 96% 29.88 in 0.2 mi NNW 3.5 mph - N/A Fog Fog
8:02 AM 69.8 °F - 69.8 °F 100% 29.88 in 0.8 mi Calm Calm - N/A   Mist
8:11 AM 69.8 °F - 69.8 °F 100% 29.88 in 1.2 mi Calm Calm - N/A   Overcast
8:21 AM 69.8 °F - 69.8 °F 100% 29.88 in 2.0 mi NW 3.5 mph - N/A   Overcast
8:35 AM 69.8 °F - 69.8 °F 100% 29.88 in 5.0 mi Calm Calm - N/A   Mostly Cloudy
8:43 AM 71.6 °F - 69.8 °F 94% 29.88 in 6.0 mi Calm Calm - N/A   Mostly Cloudy
8:53 AM 73.0 °F - 70.0 °F 90% 29.88 in 6.0 mi Calm Calm - N/A   Mostly Cloudy
9:02 AM 73.4 °F - 69.8 °F 88% 29.88 in 7.0 mi Calm Calm - N/A   Scattered Clouds
9:53 AM 78.1 °F - 72.0 °F 81% 29.89 in 8.0 mi Calm Calm - N/A   Clear
10:53 AM 82.9 °F 87.5 °F 71.1 °F 67% 29.88 in 9.0 mi Calm Calm - N/A   Scattered Clouds
11:04 AM 80.6 °F 83.9 °F 69.8 °F 70% 29.89 in 9.0 mi Calm Calm - N/A   Mostly Cloudy
11:11 AM 80.6 °F 84.6 °F 71.6 °F 74% 29.89 in 9.0 mi Calm Calm - N/A   Scattered Clouds
11:33 AM 82.4 °F 86.3 °F 69.8 °F 66% 29.89 in 10.0 mi Calm Calm - N/A   Mostly Cloudy
11:45 AM 82.4 °F 86.3 °F 69.8 °F 66% 29.89 in 10.0 mi Calm Calm - N/A   Scattered Clouds
11:53 AM 84.0 °F 87.8 °F 69.1 °F 61% 29.88 in 10.0 mi Calm Calm - N/A   Partly Cloudy
12:53 PM 86.0 °F 89.4 °F 68.0 °F 55% 29.86 in 10.0 mi Variable 3.5 mph - N/A   Clear
1:53 PM 88.0 °F 90.3 °F 66.0 °F 48% 29.86 in 10.0 mi Variable 5.8 mph - N/A   Partly Cloudy
2:53 PM 90.0 °F 90.3 °F 62.1 °F 39% 29.86 in 10.0 mi Variable 3.5 mph - N/A   Clear
3:53 PM 91.0 °F 91.9 °F 63.0 °F 39% 29.85 in 10.0 mi Variable 3.5 mph - N/A   Partly Cloudy
4:53 PM 89.1 °F 91.3 °F 66.0 °F 46% 29.85 in 10.0 mi Variable 3.5 mph - N/A   Clear
5:53 PM 86.0 °F 87.3 °F 64.4 °F 48% 29.85 in 10.0 mi Calm Calm - N/A   Clear
6:53 PM 84.9 °F 87.6 °F 66.9 °F 55% 29.85 in 10.0 mi Calm Calm - N/A   Clear
7:53 PM 79.0 °F - 69.1 °F 72% 29.86 in 10.0 mi Calm Calm - N/A   Clear
8:53 PM 73.9 °F - 71.1 °F 91% 29.88 in 9.0 mi Calm Calm - N/A   Clear
9:53 PM 73.9 °F - 71.1 °F 91% 29.89 in 7.0 mi Calm Calm - N/A   Clear
10:31 PM 71.6 °F - 69.8 °F 94% 29.90 in 2.5 mi Calm Calm - N/A   Clear
10:44 PM 71.6 °F - 69.8 °F 94% 29.91 in 3.0 mi Calm Calm - N/A   Scattered Clouds
10:53 PM 71.1 °F - 70.0 °F 96% 29.91 in 2.5 mi Calm Calm - N/A   Mostly Cloudy
11:05 PM 71.6 °F - 71.6 °F 100% 29.91 in 3.0 mi Calm Calm - N/A   Overcast
11:53 PM 72.0 °F - 70.0 °F 93% 29.91 in 6.0 mi Calm Calm - N/A   Clear